STARLINK V (59941 NORAD) Tracking and Keplerian Element Data

This shows tracking and keplerian element data for the satellite.

Feedback or suggestion? Click here.




ElementValue
Catalog59941
NameSTARLINK V
Epoch Orbit224
Epoch Day159.91667824
Epoch Year2024
RAAN23.9161
Inclination43.0036
Eccentricity0.0003934
Argument of Perigee240.9755
Mean Anonmoly235.5023
Mean Motion15.99608494
Decay Rate0.00801063
L11 59941U 24106V 24159.91667824 .00801063 30137-3 15448-2 0 9994
L22 59941 43.0036 23.9161 0003934 240.9755 235.5023 15.99608494 2242



Live tracking and technical data element details for STARLINK V (NORAD 59941). STARLINK V can be tracked NOW for your location showing map with azimuth and elevation plus other details from your city location.







IsCatalogInMostPopularTable: catalog: 59941, numindb: 15
Update: records affected: 1



GetName: 59941 STARLINK V

Hit Count: updated at: Thu, 25 Jul 2024 01:34:46 GMT